Date,TemperatureHighF,TemperatureAvgF,TemperatureLowF,DewpointHighF,DewpointAvgF,DewpointLowF,HumidityHigh,HumidityAvg,HumidityLow,PressureMaxIn,PressureMinIn,WindSpeedMaxMPH,WindSpeedAvgMPH,GustSpeedMaxMPH,PrecipitationSumIn
2013-5-1,77,60,42,50,44,39,90,60,30,30.39,30.21,10,1,11,0.00
2013-5-2,78,63,43,52,44,37,79,52,29,30.38,30.24,17,2,17,0.00
2013-5-3,72,58,45,44,37,30,71,47,27,30.43,30.27,17,3,18,0.00
2013-5-4,76,59,43,50,43,37,84,58,28,30.30,30.13,11,1,11,0.00
2013-5-5,76,56,42,49,41,34,81,61,26,30.19,30.06,13,2,13,0.00
2013-5-6,76,62,43,53,37,21,79,44,15,30.16,30.00,15,2,15,0.00
2013-5-7,79,62,42,58,41,25,80,51,22,30.09,29.97,15,2,15,0.00
2013-5-8,75,62,49,60,54,42,93,76,51,30.10,29.96,19,2,19,0.18
2013-5-9,72,62,52,59,55,50,95,78,47,29.96,29.79,14,1,14,0.04
2013-5-10,70,60,54,61,56,51,94,86,65,29.93,29.73,11,1,12,0.12
2013-5-11,70,61,50,65,56,45,94,83,65,29.75,29.56,17,3,17,0.33
2013-5-12,58,49,40,47,38,28,92,69,34,29.73,29.58,29,3,31,0.00
2013-5-13,52,42,34,36,30,26,84,63,46,30.02,29.72,29,5,29,0.00
2013-5-14,56,43,31,38,32,27,89,67,42,30.08,29.96,9,1,11,0.00
2013-5-15,58,44,30,49,37,26,91,80,42,30.01,29.57,23,3,24,0.14
2013-5-16,74,59,44,48,43,37,89,59,27,29.83,29.57,32,4,32,0.00
2013-5-17,64,53,42,49,42,37,86,67,51,30.17,29.83,17,2,17,0.00
2013-5-18,72,56,39,49,42,35,91,65,36,30.26,30.15,12,2,12,0.00
2013-5-19,66,54,42,56,49,39,93,83,65,30.23,30.06,18,2,18,0.21
2013-5-20,71,60,55,65,58,53,96,91,82,30.07,29.93,12,1,13,0.02
2013-5-21,70,62,56,67,59,54,96,90,75,29.94,29.75,20,1,20,0.60
2013-5-22,78,66,56,71,63,54,97,90,74,29.80,29.69,16,1,16,0.12
2013-5-23,78,68,60,68,63,58,95,86,63,29.73,29.63,22,2,22,1.01
2013-5-24,60,48,42,58,46,40,95,91,86,30.00,29.63,29,5,30,0.71
2013-5-25,43,42,40,41,39,37,92,91,87,29.98,29.88,32,10,36,0.92
2013-5-26,49,44,37,45,40,34,92,87,82,30.06,29.84,28,5,28,0.18
2013-5-27,66,52,35,48,40,33,94,67,39,30.14,30.03,22,2,22,0.01
2013-5-28,73,57,39,53,45,35,87,67,35,30.18,30.05,15,2,15,0.00
2013-5-29,68,61,56,64,58,51,95,90,75,30.05,29.88,14,1,14,0.25
2013-5-30,85,70,58,72,64,57,96,81,50,30.03,29.93,9,1,9,0.00
2013-5-31,92,76,62,75,64,58,91,69,34,30.02,29.84,16,2,17,0.00